Location: Byhalia Creek
(34.8270°N, 89.8040°W)
Time: 20:50:07
(UTC+00:00)

Cosmos 2242 Rocket - Pass Details

Date: 22 April 2026
Orbit: 612 x 646 km, 82.5° (Epoch: 21 May)

Event Time Altitude Azimuth Distance (km) Brightness Sun altitude
Rises 01:42:21 0° 358° (N) 2,915 7.4 -13.5°
Reaches altitude 10° 01:44:39 10° 3° (N) 1,998 6.5 -13.9°
Maximum altitude 01:48:59 54° 81° (E) 758 3.7 -14.7°
Enters shadow 01:51:50 20° 153° (SSE) 1,435 5.0 -15.2°
